Theta_e
341 343 346 348 350 350 350 350 351 352 353 349 348 350 352 352 351 351 348 346 344 345 345 340 338 341 343 342 342 344 344 344 342 339 338 338 339 340 341 340 340 339 339 339 340 339 338 339 334 326 332 341 343 343 344 344 343 343 343 341 341 340 341 341 342 343 343 340 340 342 342 341 340 340 341 342 341 341 343 344 341 340 341 342 341 342 342 341 342 340 339 336 333 334 338 339 341
345 347 348 349 349 351 351 351 352 352 350 347 348 352 352 352 351 350 348 347 347 347 343 338 341 346 345 343 344 344 345 346 344 340 340 338 338 339 340 340 339 339 339 340 340 339 338 336 329 328 339 344 343 344 344 343 343 343 343 343 342 341 341 342 344 345 342 340 341 341 340 340 340 342 343 341 340 342 343 342 340 339 341 342 340 342 342 341 341 338 335 332 333 336 339 340 341
347 348 348 349 349 350 351 353 354 352 348 346 349 354 352 352 352 349 349 351 349 345 341 340 346 348 345 343 345 344 345 345 343 340 339 337 337 338 339 340 340 340 340 340 340 338 337 332 328 334 341 343 343 344 343 344 343 343 344 343 343 343 342 344 345 343 340 340 342 341 339 341 342 343 342 340 340 342 342 341 341 340 340 341 341 342 342 341 341 337 333 334 336 338 340 340 341
347 348 348 349 350 351 352 355 357 352 347 347 348 352 353 352 351 350 352 352 347 342 340 344 348 348 347 346 346 346 346 345 343 340 338 336 335 338 339 340 340 340 340 340 339 337 335 331 331 337 341 343 343 343 343 344 343 343 344 343 343 343 343 344 344 341 339 340 342 341 340 341 343 344 341 339 341 341 341 342 342 341 339 339 341 342 341 341 341 338 337 338 340 340 341 341 341
348 349 349 349 351 352 353 356 356 351 348 349 348 353 353 351 351 351 352 350 345 342 343 347 348 347 348 347 347 347 346 344 342 338 336 335 333 334 337 340 340 340 341 340 338 337 334 329 333 339 342 343 343 343 343 343 343 343 343 342 341 341 342 344 342 340 340 341 342 341 342 342 343 344 341 341 342 341 342 342 341 342 339 339 341 342 342 341 340 340 340 341 341 340 341 341 342
349 349 349 349 351 351 353 353 351 350 350 351 351 354 352 351 352 351 351 349 346 343 345 348 348 348 348 347 347 346 345 343 340 336 333 332 331 330 335 339 340 340 340 340 340 339 332 328 334 341 343 343 343 343 342 343 343 342 342 340 340 341 343 343 341 341 340 342 343 342 343 344 344 343 342 342 342 342 342 340 340 342 341 340 342 342 342 340 339 340 341 341 340 340 340 341 342
348 351 351 350 352 352 353 353 350 352 353 352 352 353 351 352 352 351 351 349 347 345 347 348 348 348 347 346 347 347 345 341 336 333 329 329 329 329 333 339 339 340 340 340 341 339 331 327 334 341 343 343 343 343 342 343 343 343 341 340 340 342 343 343 341 342 341 342 342 342 343 344 345 343 342 343 342 342 343 340 339 341 340 340 342 342 342 340 339 339 339 339 340 339 338 340 342
349 351 351 351 353 353 354 354 354 354 353 352 352 352 352 353 352 351 351 349 348 346 347 348 348 348 347 347 347 347 344 338 333 330 328 329 329 329 335 339 338 339 339 338 340 339 331 325 334 342 343 343 343 343 343 343 343 343 342 341 342 343 343 343 342 341 341 342 341 342 343 344 345 343 342 343 342 342 342 341 340 340 337 337 340 341 341 340 338 337 339 340 340 338 336 337 339
349 351 352 352 353 353 353 354 356 355 353 352 352 353 353 352 352 351 351 350 349 347 348 348 348 348 347 348 348 347 344 337 332 330 331 330 329 332 337 338 338 338 337 337 340 340 332 325 334 343 343 343 342 341 343 344 344 343 343 343 343 343 343 343 341 339 341 342 342 342 343 343 344 344 344 343 342 341 342 342 343 341 338 338 340 341 340 339 338 339 341 341 339 338 337 336 336
350 351 352 353 353 351 349 352 356 355 353 353 352 353 353 352 352 352 351 350 350 349 349 348 348 348 347 348 347 347 344 337 333 333 332 331 332 336 338 338 338 337 337 338 341 341 335 327 332 343 343 342 341 341 342 343 343 343 342 343 343 343 343 343 340 339 342 342 342 342 343 343 342 343 343 343 342 342 341 342 343 343 341 341 341 341 339 339 341 342 342 341 340 340 339 338 337
352 352 352 353 351 348 347 350 355 355 353 353 352 353 353 352 352 352 351 350 350 349 349 348 348 348 347 348 347 346 343 338 335 334 333 334 336 339 338 338 338 338 338 339 342 340 337 331 332 341 342 341 341 341 343 343 344 343 342 343 343 343 343 343 341 341 342 343 342 342 343 343 340 341 342 342 342 342 342 342 342 342 342 342 341 341 340 340 341 342 341 341 340 340 340 339 337
352 352 352 354 352 349 351 351 355 355 353 352 352 353 353 353 352 351 351 350 350 349 348 349 348 348 347 347 347 346 344 341 338 337 337 339 339 339 339 338 339 339 338 339 342 340 340 335 333 341 341 341 342 342 343 344 343 343 343 342 343 343 342 342 341 342 342 343 342 342 344 343 340 341 341 342 342 342 343 343 342 341 341 340 340 341 342 342 341 341 341 341 341 341 340 340 336
351 351 351 355 354 353 354 354 355 356 355 354 352 353 353 354 353 351 351 350 350 349 348 348 347 347 346 347 347 346 346 343 342 342 341 340 339 339 339 339 339 340 338 339 342 341 339 333 332 341 342 341 341 342 344 344 342 342 342 342 343 343 342 341 340 341 341 342 342 342 344 343 341 340 340 341 342 342 342 341 340 341 340 339 339 340 342 342 342 341 341 340 341 340 341 340 336
350 351 352 356 355 353 354 355 356 356 356 354 353 354 354 355 353 350 351 350 350 350 348 347 346 347 346 347 346 345 346 344 343 343 341 340 339 339 339 339 339 339 338 339 342 339 333 327 332 341 341 341 341 342 344 344 343 342 342 343 343 344 342 341 339 339 340 342 342 342 344 343 342 340 338 340 341 342 342 341 341 341 340 339 340 340 341 342 342 341 340 340 340 340 340 340 338
349 351 352 355 355 352 353 354 355 357 355 353 353 354 354 354 351 350 351 350 350 349 347 346 345 346 346 346 346 346 347 345 344 341 340 340 340 339 339 339 339 339 338 340 341 336 330 331 338 342 341 342 341 343 344 344 344 343 343 343 344 344 344 343 341 339 339 341 343 343 343 343 343 342 341 341 340 342 342 342 341 341 340 341 341 341 342 342 342 341 341 341 340 340 341 340 340
350 351 353 355 354 352 352 354 356 357 355 354 354 354 354 353 351 351 351 350 349 348 347 346 345 345 346 346 346 346 347 345 343 341 340 341 341 340 340 340 341 340 339 340 340 334 330 337 342 342 342 342 341 342 344 345 344 343 344 344 343 343 344 344 344 341 340 341 343 343 343 343 344 343 343 342 340 342 343 342 341 341 341 341 341 341 341 342 342 342 342 342 341 340 341 341 341
350 352 353 354 353 353 353 353 356 357 355 354 354 354 353 352 353 351 349 349 349 348 348 347 347 345 346 346 345 346 346 345 343 341 342 342 342 342 342 343 343 341 340 339 337 333 332 340 344 343 343 342 342 342 343 345 344 344 344 342 341 342 342 344 344 344 342 342 341 342 342 343 343 343 343 342 341 342 342 342 340 340 341 341 341 341 341 341 342 342 341 341 340 340 341 341 341
349 352 353 352 353 355 355 353 355 356 354 353 355 355 353 352 353 351 349 349 349 349 348 347 348 346 343 342 344 346 346 345 344 343 343 344 344 344 345 345 344 343 341 336 335 334 334 341 344 344 344 342 342 342 342 344 344 341 340 339 340 342 342 342 343 344 344 343 342 342 342 342 342 342 342 343 343 342 341 340 338 338 339 340 340 340 340 341 341 341 340 340 340 341 341 340 340
348 351 352 351 352 354 354 353 355 356 354 354 355 354 354 353 353 352 350 349 349 348 349 348 348 347 344 343 345 347 346 346 346 344 344 345 345 346 346 346 345 343 339 334 336 336 334 340 345 344 344 342 342 342 342 343 342 339 338 339 341 342 342 342 342 343 343 344 343 343 343 342 341 341 342 343 342 342 341 340 338 339 340 340 340 340 340 340 340 341 341 341 341 340 340 340 339
351 351 352 352 351 351 352 355 356 356 355 355 355 354 355 354 353 353 351 349 349 348 349 349 349 348 347 346 347 347 346 347 346 345 345 346 346 347 347 346 344 340 335 334 337 336 332 340 345 344 343 344 343 343 342 342 342 340 340 340 341 341 340 341 342 342 343 343 342 342 342 342 341 341 341 342 342 342 341 340 340 341 341 341 341 340 340 341 341 342 341 341 340 339 339 338 337
352 352 352 352 351 351 352 355 355 354 355 356 355 354 355 355 354 353 351 349 349 349 349 348 348 348 348 347 348 348 347 347 346 345 346 347 347 347 346 345 342 337 334 336 337 333 331 338 344 344 343 343 343 344 343 343 342 343 342 341 341 340 339 340 342 341 342 342 341 341 341 342 342 343 343 342 342 341 340 340 341 340 340 341 341 341 342 343 342 341 341 340 340 339 338 337 336
353 353 352 352 352 353 354 355 354 353 354 355 355 355 354 355 354 352 350 350 349 350 349 347 348 347 347 348 348 348 347 347 346 345 346 346 346 346 344 341 339 335 334 339 337 331 331 337 342 343 343 343 343 344 344 343 343 344 343 341 340 338 338 339 340 341 342 342 341 341 341 341 342 342 342 340 339 338 337 337 337 337 339 342 342 343 343 342 342 340 340 340 340 339 337 337 337
352 352 352 353 352 355 357 354 353 352 354 355 356 355 355 355 353 351 351 352 350 348 348 347 347 348 348 348 347 347 347 346 345 344 343 344 345 343 340 338 336 333 336 342 338 331 332 337 341 342 343 343 343 344 344 343 344 344 342 340 338 338 337 337 339 340 342 342 342 342 341 341 341 340 338 335 333 333 333 333 334 338 341 343 342 342 342 341 341 340 340 339 339 339 338 338 337
351 350 352 353 354 357 357 354 352 352 354 355 356 355 355 355 353 352 353 352 348 347 347 347 346 348 349 347 347 347 346 345 343 342 340 342 343 340 337 336 335 334 337 340 337 334 335 338 340 340 342 343 343 343 343 343 344 344 342 339 338 338 337 336 338 340 341 341 341 341 341 340 340 339 334 328 328 330 330 332 336 341 342 342 341 341 341 341 341 340 340 339 339 339 338 338 337
352 350 352 354 355 356 356 354 353 353 354 355 356 356 356 355 352 353 354 351 348 347 347 346 346 348 349 348 347 346 344 343 341 340 339 339 341 339 337 335 334 335 336 335 335 338 338 338 339 339 340 341 343 343 342 343 344 344 342 339 338 337 337 336 337 340 341 339 338 339 339 338 338 336 332 327 328 330 332 336 339 341 341 340 340 340 340 341 341 341 340 340 340 340 340 339 338
352 351 353 356 355 356 356 355 354 353 354 355 356 356 355 353 352 353 353 351 349 349 348 347 347 349 350 349 347 345 342 341 340 339 338 337 337 337 335 333 333 335 336 333 334 341 342 340 339 338 339 340 341 343 343 343 344 344 342 341 339 337 337 336 337 339 339 337 336 336 337 336 336 335 333 332 332 333 336 339 340 340 339 339 339 340 340 341 341 341 341 341 342 342 341 341 341
352 353 354 356 355 355 355 355 355 354 355 356 356 354 354 352 352 353 352 351 349 349 350 348 348 349 350 348 347 344 341 342 342 340 339 336 335 335 333 332 333 336 337 333 335 341 343 341 340 339 338 338 339 340 342 342 343 344 342 342 340 337 337 336 336 336 337 337 335 334 334 335 335 335 335 336 336 337 338 339 339 339 339 338 339 340 341 341 342 341 342 342 342 343 343 343 343
353 353 353 353 354 354 353 354 355 355 355 356 355 354 354 353 353 354 351 351 349 349 351 349 349 349 349 348 346 345 345 347 346 343 339 336 335 334 333 332 335 337 336 333 336 341 342 342 340 339 339 338 337 338 340 341 341 342 341 341 340 338 337 335 334 335 335 336 334 333 333 333 334 335 336 337 338 338 339 339 339 339 339 339 339 340 341 342 342 342 342 343 343 343 344 344 344
354 352 351 350 352 352 350 352 353 354 355 354 354 355 355 353 354 354 351 350 350 350 350 350 350 350 350 349 348 348 349 350 348 344 338 335 335 335 334 335 336 338 336 334 338 342 342 341 341 340 340 338 337 337 338 339 339 341 340 341 340 338 337 334 333 335 335 335 335 334 334 335 335 336 337 338 338 339 340 340 340 340 340 340 340 341 342 343 343 343 344 344 344 344 344 345 344
355 351 351 350 352 353 350 351 351 352 354 353 354 355 356 355 354 354 352 351 351 351 351 350 350 350 350 350 350 350 350 350 349 345 341 338 336 336 336 336 337 338 337 337 339 342 342 341 341 341 340 338 337 337 337 337 338 339 338 340 340 338 337 335 335 336 336 336 337 337 337 339 339 339 340 340 341 341 341 341 341 341 341 341 342 343 344 344 344 344 345 344 345 345 345 345 345
352 351 353 351 351 352 351 350 351 352 353 353 353 355 357 356 355 354 352 351 351 351 351 350 350 350 350 351 351 350 350 350 349 347 346 343 339 337 338 337 338 339 339 339 341 342 342 341 340 340 340 339 337 336 337 337 337 337 338 338 339 338 337 336 336 337 337 338 338 338 340 341 341 342 342 342 342 342 341 342 343 343 343 343 344 345 345 345 345 345 345 345 345 345 346 346 346
350 349 350 350 350 352 352 350 350 353 352 352 353 355 357 356 354 353 352 351 351 351 351 350 350 350 350 350 351 351 351 351 350 349 349 346 341 339 339 338 340 341 341 341 342 341 341 341 340 339 339 338 337 336 337 337 336 337 337 338 338 338 338 337 337 338 339 339 339 339 340 340 341 342 342 343 342 342 342 343 344 345 345 345 345 346 347 346 345 345 345 345 345 345 346 347 347
349 346 346 348 349 352 354 351 350 352 352 352 354 357 358 356 354 353 352 351 351 351 351 350 350 350 350 350 351 351 351 351 351 350 349 347 344 342 341 341 342 343 342 342 342 341 341 341 340 339 339 338 337 336 337 336 335 336 337 338 338 339 340 339 339 339 339 340 340 341 341 341 341 341 342 343 342 342 342 343 344 344 345 345 345 346 346 346 346 345 345 346 346 346 347 348 348
346 344 346 348 350 352 352 353 352 352 352 353 354 356 356 355 354 353 352 352 351 351 351 350 351 350 351 350 351 351 351 351 351 350 349 348 346 345 344 345 345 344 343 343 342 341 341 342 341 340 339 338 336 336 336 336 335 336 337 338 338 339 340 341 340 339 339 340 341 342 342 342 342 343 344 343 342 342 342 343 343 344 344 345 345 345 346 346 346 346 346 346 347 347 347 348 348
344 343 344 346 349 350 351 353 353 352 351 354 355 354 355 354 354 354 352 352 351 351 351 351 351 351 351 351 351 352 352 352 351 349 348 347 347 348 347 347 346 345 344 344 343 342 341 343 343 342 341 338 336 336 336 335 335 336 337 338 339 339 340 340 340 339 339 340 341 342 342 342 343 344 344 344 344 343 343 343 344 343 343 343 343 344 345 346 346 347 347 347 348 348 348 348 347
345 344 343 344 347 349 351 353 353 353 352 354 355 353 355 355 354 354 353 352 351 351 351 350 351 351 351 351 351 352 352 351 351 349 348 347 347 348 348 347 347 345 345 344 344 342 341 343 344 343 342 339 335 335 335 335 335 336 337 339 341 341 340 340 340 340 341 341 342 342 342 342 343 344 345 345 345 344 343 343 343 342 343 342 343 344 345 345 346 347 347 348 348 348 349 348 347
344 342 341 341 344 346 350 353 353 354 352 353 355 353 354 355 353 353 353 352 351 350 351 350 351 351 350 351 351 351 351 351 351 349 348 347 347 348 348 347 347 346 345 345 344 342 341 343 344 344 343 339 335 334 335 335 335 335 337 338 341 342 341 341 342 343 343 343 343 343 343 343 344 345 345 346 346 345 344 343 343 343 344 344 345 345 345 345 346 347 347 348 348 349 349 349 347
339 339 339 336 338 346 350 352 353 353 352 352 354 353 354 355 353 353 353 352 351 350 351 350 350 350 351 351 351 351 351 350 350 349 348 348 348 348 347 347 347 346 345 345 344 342 341 343 344 345 344 340 335 334 335 335 334 335 336 337 339 341 341 342 343 344 345 344 343 342 343 344 345 345 345 346 346 345 344 344 344 344 344 345 345 345 345 345 346 346 346 347 348 348 349 349 348
329 336 340 335 337 348 350 352 353 351 351 352 352 353 354 354 352 353 353 352 352 351 350 350 350 350 350 350 350 351 350 350 350 349 349 348 348 347 347 347 346 346 346 345 344 343 342 343 344 345 344 341 336 334 335 336 335 335 337 338 339 339 341 341 342 343 344 344 343 342 342 343 344 345 345 346 345 345 344 344 344 344 344 344 344 344 344 344 345 345 346 347 348 349 349 349 347
322 329 335 333 338 345 344 350 355 351 350 352 353 353 354 355 353 353 353 352 351 351 350 351 350 350 350 350 350 350 350 350 349 349 349 348 348 347 347 347 346 346 346 344 344 344 343 342 343 345 344 343 339 336 335 337 337 338 338 339 339 339 340 340 341 341 341 342 343 342 342 342 343 345 346 346 347 347 346 345 344 343 343 344 344 344 343 343 344 345 346 346 348 350 350 349 347
320 322 326 327 337 345 344 351 354 351 351 351 352 352 352 354 355 353 353 352 351 350 351 351 350 350 350 349 350 349 349 349 349 349 349 349 347 346 347 346 345 346 343 342 344 345 344 343 343 344 344 343 342 340 337 337 338 339 340 340 340 340 340 340 341 340 340 340 341 342 342 342 343 344 346 347 348 348 347 346 344 343 343 344 344 344 343 342 343 344 345 346 347 348 349 349 348
318 320 322 321 333 347 350 353 351 348 349 350 351 349 348 352 355 354 353 352 351 351 351 351 351 351 350 349 349 349 349 349 348 348 348 348 347 346 347 346 345 345 341 340 343 344 345 344 342 343 344 343 342 342 340 338 339 341 341 341 341 341 341 340 340 339 338 338 339 340 340 341 342 343 345 346 347 348 348 346 344 344 344 343 344 344 343 342 343 343 343 345 346 347 348 349 349
319 319 321 319 330 346 351 351 346 343 345 349 350 346 343 348 353 354 353 352 352 352 352 351 351 351 351 350 349 349 349 348 348 348 347 348 347 347 347 346 346 344 340 340 342 343 345 346 343 342 342 343 343 342 341 339 340 342 343 343 342 340 340 339 339 338 338 338 339 339 339 340 341 342 343 345 346 347 347 345 344 344 344 344 345 344 343 343 343 343 343 344 345 346 347 348 349
319 318 317 319 330 343 349 348 344 344 346 350 351 346 342 343 348 353 353 352 353 352 352 351 351 351 351 351 349 348 348 348 347 347 347 347 347 347 347 346 346 344 341 341 342 343 343 345 345 342 341 343 343 342 342 340 341 343 344 343 341 339 340 340 340 339 340 341 340 339 340 341 341 341 341 343 345 345 345 344 343 344 344 344 345 345 344 344 344 344 343 344 344 345 346 347 348
319 318 321 325 332 341 346 346 344 346 347 347 348 346 343 340 345 352 353 353 354 353 352 352 351 351 351 351 350 348 347 348 347 347 347 347 347 347 347 346 346 345 343 341 342 343 343 344 346 344 342 342 343 343 343 341 341 343 344 343 341 340 342 344 343 344 345 345 343 341 341 342 342 342 341 342 343 344 344 344 343 344 344 343 343 344 344 344 344 344 344 344 345 346 347 348 347
319 324 333 338 341 344 347 346 345 346 344 343 345 344 342 339 343 350 353 354 353 352 352 352 352 351 351 351 351 349 347 347 347 347 348 348 347 346 346 346 346 345 344 342 342 343 343 343 345 344 343 341 342 342 343 342 341 342 344 343 342 342 345 346 346 347 348 348 347 344 342 343 343 342 341 342 342 343 344 344 344 344 343 342 343 344 344 344 345 344 345 346 346 346 347 347 347
321 332 344 346 346 346 345 345 345 345 342 340 343 345 342 339 342 349 352 353 352 352 352 351 352 351 351 351 351 350 348 347 347 347 348 348 347 346 346 346 345 345 345 343 343 343 343 343 343 344 344 343 342 341 342 342 342 342 342 342 343 344 346 347 348 348 348 348 348 346 344 343 343 342 342 342 342 342 343 343 343 343 343 343 343 343 344 345 346 345 346 347 346 346 346 346 347
320 333 342 341 344 345 343 343 343 342 339 338 343 346 343 338 340 348 351 351 350 351 352 351 352 352 351 351 351 351 349 347 346 346 347 347 346 345 345 345 345 344 344 344 343 343 343 343 343 344 345 345 343 342 341 342 342 342 341 341 342 344 346 347 348 348 348 348 347 347 345 343 343 343 342 342 342 342 343 343 343 343 344 343 343 343 344 345 346 347 348 349 347 345 345 346 346
318 327 331 332 339 342 341 341 340 338 337 337 343 346 343 341 341 345 349 349 350 351 352 353 353 353 351 351 350 350 350 348 346 346 346 346 345 345 345 344 344 344 343 343 343 342 343 344 343 344 345 345 345 344 342 342 341 341 341 340 340 343 345 346 348 348 348 348 348 348 345 343 343 343 343 342 342 343 344 344 344 344 344 343 343 343 344 345 346 347 349 348 347 345 344 344 344
318 323 325 327 335 339 340 339 337 335 334 337 344 346 342 341 342 345 346 347 349 350 352 353 353 353 352 351 350 349 350 349 346 346 345 345 346 345 345 344 343 344 343 343 343 342 343 343 343 344 344 345 345 343 342 341 341 341 341 340 339 341 344 346 347 348 349 349 349 348 346 343 343 343 343 343 343 344 345 344 344 345 344 344 344 344 344 345 347 348 349 347 345 344 344 344 344
319 322 325 326 330 333 335 336 334 332 335 340 343 342 339 339 342 346 348 348 348 347 349 352 352 353 352 351 350 349 349 349 347 346 345 345 346 345 344 344 343 343 342 343 342 342 342 343 344 344 344 344 343 340 340 340 340 340 340 341 339 340 342 344 347 348 349 349 349 349 347 344 342 342 342 343 343 344 345 345 344 345 345 344 344 345 344 345 347 349 348 347 345 343 343 344 344
319 321 322 324 330 331 330 332 333 332 336 341 342 340 339 340 342 345 349 350 348 346 348 352 352 352 352 351 351 350 350 350 348 347 345 345 345 344 344 344 343 343 342 342 342 342 342 342 343 344 343 344 343 340 339 339 339 338 338 340 340 340 340 343 345 347 348 349 349 349 348 345 342 343 344 344 344 344 344 345 345 344 345 344 345 345 344 345 347 348 348 348 347 343 342 343 344
319 319 318 321 329 332 329 328 332 333 332 337 340 338 337 339 339 344 349 350 350 348 348 352 352 352 352 351 352 351 350 350 348 347 346 344 344 343 344 344 343 342 342 342 342 342 342 342 343 343 344 344 343 342 341 341 340 339 337 338 339 340 340 341 344 346 347 348 349 349 349 347 345 347 348 346 344 344 344 345 345 345 345 344 344 345 345 346 347 348 348 349 348 344 342 343 344
320 318 319 322 324 327 328 327 330 332 330 333 337 336 335 335 336 345 351 351 351 350 350 352 353 352 352 351 351 351 350 350 348 348 346 345 344 343 343 343 342 342 342 342 342 341 342 342 342 343 344 344 344 343 343 342 342 341 339 338 338 339 340 340 342 345 347 348 348 349 349 349 348 349 350 348 345 344 345 345 346 345 344 344 344 344 345 346 346 346 347 348 348 345 343 344 343
321 320 322 322 319 320 324 325 327 330 330 331 334 335 335 333 336 346 350 351 351 351 351 352 352 352 352 352 352 351 350 350 349 349 347 345 343 342 342 342 342 342 342 342 342 342 342 342 342 343 343 343 344 343 344 343 343 343 341 339 337 338 339 340 340 343 347 348 348 349 349 349 350 350 350 349 347 344 344 346 346 345 344 344 344 344 344 344 344 345 345 346 346 345 344 345 344
321 322 322 322 321 321 322 323 324 326 329 331 333 335 336 336 341 347 348 350 352 351 351 352 352 353 352 352 352 352 352 351 349 349 349 346 344 343 342 341 341 341 342 342 342 341 342 342 342 342 343 344 344 344 344 344 343 343 342 341 338 337 338 339 340 342 345 347 348 348 349 349 349 349 349 350 349 347 345 345 345 345 344 344 344 344 344 343 343 344 344 344 344 344 344 344 344
321 321 320 320 322 322 322 323 324 325 329 331 331 332 335 339 344 347 347 349 351 352 352 352 353 354 353 353 353 353 353 351 349 349 349 348 347 346 344 343 342 341 341 341 341 341 342 342 342 342 343 343 344 344 344 344 344 343 342 341 339 337 337 339 340 341 343 346 348 348 348 348 349 349 349 349 349 348 346 346 346 345 345 344 343 345 345 344 343 343 343 343 343 343 343 343 343
322 323 322 321 322 321 319 320 324 328 331 331 329 328 333 341 343 345 347 349 351 351 352 352 353 353 353 354 353 352 352 350 349 349 348 348 348 348 347 346 344 343 342 342 341 342 342 342 342 342 343 343 343 344 344 344 344 343 341 340 339 338 336 338 340 342 342 345 347 347 347 348 348 347 348 347 347 346 345 345 346 346 347 346 344 346 347 347 345 344 343 342 342 342 342 342 342
Wind_Speed
6 7 7 5 3 2 1 0 1 1 0 2 3 2 2 3 6 8 10 10 8 7 7 13 17 11 5 4 6 8 7 5 1 1 4 13 25 23 20 21 19 19 18 17 15 14 13 11 10 11 12 12 10 9 8 7 7 7 8 8 8 8 8 8 8 8 7 6 6 8 10 10 10 10 10 11 11 11 13 13 13 13 13 14 14 14 14 15 16 16 16 16 18 19 18 17 17
7 6 5 3 2 1 1 0 1 1 1 3 3 2 4 4 6 9 10 8 7 9 15 19 13 6 5 6 8 9 8 5 2 3 11 24 28 22 22 21 19 18 17 17 15 14 13 11 10 11 12 11 10 9 8 7 7 7 8 8 8 9 8 8 9 9 8 7 7 8 9 9 9 10 11 10 11 12 14 13 13 13 14 14 13 14 15 16 16 17 17 18 19 18 17 16 16
6 5 4 2 1 1 1 0 0 1 1 3 3 2 4 5 7 10 8 7 11 16 21 17 8 6 8 9 5 5 5 4 5 12 19 27 27 24 23 21 20 17 16 17 15 14 12 11 10 12 12 10 9 8 7 7 7 7 8 8 9 9 8 8 11 11 9 9 8 8 8 9 9 11 11 10 11 13 14 13 13 13 13 14 14 14 15 16 17 18 19 19 19 18 17 16 15
5 4 3 2 1 1 0 0 1 0 1 2 3 4 5 7 9 10 9 11 16 20 22 15 7 5 7 8 4 4 5 4 9 18 23 26 26 25 23 22 20 17 16 17 15 14 11 10 10 12 12 9 9 8 7 7 7 7 8 8 8 8 8 9 11 10 9 9 8 8 8 9 9 11 11 10 12 13 14 13 14 15 14 14 14 15 15 16 18 18 19 19 18 17 17 16 15
4 3 2 3 1 1 1 0 1 0 1 1 3 5 6 9 11 11 11 14 18 20 19 12 6 5 7 7 3 2 6 7 13 21 26 27 26 24 22 21 19 17 17 16 15 13 11 10 11 12 11 9 8 8 7 7 8 8 8 8 8 8 8 10 10 8 8 8 8 8 8 9 9 10 10 10 12 13 13 13 14 16 15 14 15 16 16 16 17 18 18 18 16 16 16 15 15
4 2 3 3 2 1 0 0 1 1 2 1 3 6 8 10 12 14 14 14 15 17 14 9 7 8 9 9 7 6 5 8 15 22 27 27 25 23 20 20 19 17 17 16 14 12 10 10 11 11 9 8 8 7 8 8 8 8 8 8 9 9 8 10 9 7 7 8 8 7 8 9 10 10 10 10 12 13 13 14 16 16 16 16 16 16 16 16 17 18 18 17 16 16 16 15 15
3 3 3 2 2 2 1 1 1 2 2 1 4 8 9 11 14 17 17 13 12 13 9 8 11 11 8 6 8 7 2 9 19 25 28 26 24 22 20 20 19 18 17 16 13 11 10 10 11 10 9 8 7 7 8 8 8 9 9 9 10 9 9 10 9 8 8 8 8 7 8 9 11 10 10 11 12 13 15 16 16 16 17 17 17 17 17 17 17 17 17 17 16 15 15 15 15
3 3 3 2 1 1 1 1 2 2 2 3 7 9 10 12 16 16 15 12 11 11 10 10 11 9 6 5 7 5 4 14 22 27 27 25 24 23 21 20 20 19 17 15 13 10 9 10 10 10 9 7 7 7 7 8 8 9 10 10 10 10 10 10 9 9 10 9 8 7 8 9 10 11 11 12 13 14 16 18 17 17 19 18 17 17 17 17 17 16 17 18 16 16 15 14 14
3 3 3 1 1 1 0 1 2 3 3 6 8 10 12 14 15 15 13 11 12 12 12 11 5 6 8 10 11 7 7 15 23 26 25 24 23 22 21 20 20 19 18 15 12 10 9 9 9 9 8 7 7 7 7 8 8 9 10 10 10 10 11 11 9 10 10 10 9 8 9 10 10 11 13 14 14 14 16 19 19 19 20 19 18 18 17 17 18 17 18 19 18 17 16 15 14
3 4 2 0 1 1 0 1 2 4 5 7 8 10 13 14 13 12 13 12 13 12 11 8 6 10 12 12 12 8 9 17 24 25 24 23 22 22 21 20 19 18 17 14 12 9 8 8 8 8 7 6 6 7 8 8 9 9 9 10 10 10 11 11 9 10 11 10 10 10 11 11 11 13 14 15 16 16 17 19 20 20 20 20 19 19 17 18 18 17 17 18 19 18 17 15 14
2 3 1 0 1 1 1 2 4 4 6 7 8 9 10 12 11 10 13 13 12 12 11 8 10 15 14 12 10 9 13 19 23 25 24 23 22 22 21 20 18 17 15 13 11 9 7 7 7 7 7 6 6 7 8 8 9 9 10 10 10 10 11 11 10 10 11 11 11 12 13 12 13 15 16 17 17 17 18 19 19 20 20 20 20 19 19 19 18 17 17 18 18 18 17 15 15
2 2 1 1 1 0 1 3 5 6 7 6 7 8 8 9 9 11 13 13 12 13 11 8 11 13 11 11 10 12 15 19 22 23 23 22 22 22 20 19 18 16 14 12 10 9 7 7 7 7 6 6 6 7 8 8 9 9 10 10 10 11 11 12 11 11 11 12 13 14 16 15 15 16 18 19 18 18 18 18 19 20 20 20 20 19 19 19 17 16 17 18 18 17 17 16 15
1 3 3 2 0 0 2 3 4 7 6 5 7 7 8 7 8 12 14 13 12 11 7 10 15 10 9 12 13 15 16 19 21 21 22 22 22 21 20 19 18 16 14 11 10 8 7 7 7 6 6 6 6 7 8 9 9 9 10 10 11 12 13 13 12 12 13 13 14 16 18 18 17 17 18 20 19 19 18 18 18 18 18 18 19 19 18 17 16 16 17 18 17 17 17 16 16
1 3 3 2 1 1 2 3 5 6 5 5 7 7 6 5 9 14 16 14 9 9 9 13 16 11 12 13 13 17 17 20 21 21 23 22 22 21 19 19 17 16 14 11 9 8 7 7 7 6 6 7 7 8 9 9 9 9 9 10 11 13 15 15 13 13 14 15 16 17 18 20 19 18 19 20 20 19 19 18 18 17 17 17 17 17 17 16 16 17 17 17 17 17 17 16 16
1 3 2 2 0 2 2 3 5 5 5 7 7 8 8 7 12 15 14 12 8 11 14 15 13 7 11 12 13 20 20 21 21 22 23 21 21 20 19 18 17 16 13 10 9 7 6 7 7 7 6 8 8 8 9 9 9 9 10 11 11 12 15 16 15 14 14 14 16 17 18 20 20 19 19 19 19 19 18 18 18 17 17 17 16 16 16 16 16 17 17 17 17 17 17 17 16
1 2 1 1 0 2 2 3 5 5 6 8 8 10 11 9 12 12 10 13 14 13 12 11 6 3 13 15 18 24 23 23 22 22 22 20 20 18 18 16 15 14 12 10 8 7 6 7 8 7 7 8 8 9 10 9 9 10 10 10 10 11 14 16 16 15 14 14 15 16 17 20 20 20 20 19 19 18 18 18 17 16 16 16 15 16 17 17 17 16 16 16 17 17 16 17 16
2 2 1 1 0 2 3 5 4 5 7 10 10 10 11 10 10 12 13 16 17 11 10 8 3 8 16 19 24 26 24 24 22 23 23 21 20 18 17 15 14 13 11 10 8 7 7 7 8 7 6 7 8 8 10 9 9 9 10 9 9 11 13 15 16 16 16 15 15 15 16 19 20 20 20 20 19 18 17 16 15 16 16 16 16 16 17 17 17 16 16 17 17 17 16 16 15
2 2 2 2 0 2 4 6 4 5 9 11 11 10 13 13 11 14 15 16 16 12 13 11 10 13 18 23 27 26 24 24 23 23 22 20 20 19 17 15 14 12 11 11 9 8 8 8 8 7 6 7 8 9 9 9 9 9 9 9 10 11 13 14 16 16 17 17 16 15 16 17 18 19 19 19 19 19 18 16 15 16 16 15 16 17 17 18 17 17 17 18 18 18 17 16 16
3 2 2 3 1 1 2 4 4 6 12 12 10 12 14 14 13 14 12 14 15 13 13 15 17 18 21 25 26 24 24 22 22 22 20 18 18 18 17 16 14 12 12 11 9 8 8 9 9 8 7 8 8 9 9 8 9 9 10 10 10 11 12 13 15 15 16 17 17 16 16 16 17 18 19 18 18 19 19 17 15 16 16 16 16 17 17 18 18 18 18 18 19 18 18 17 16
2 2 3 3 2 2 5 4 4 9 15 14 11 13 13 12 12 11 13 15 13 12 13 16 19 22 26 27 24 23 23 21 20 20 19 18 17 17 16 14 13 13 13 11 9 8 9 9 8 9 8 8 8 8 8 8 9 9 9 10 10 11 12 13 14 15 15 16 16 17 17 17 17 17 18 17 17 18 19 18 17 16 17 16 16 17 17 18 19 19 19 18 18 17 16 15 15
1 1 4 4 2 2 5 5 10 15 15 14 13 14 13 11 10 12 16 13 8 10 14 18 22 27 29 28 24 24 22 21 20 19 18 17 16 16 14 13 13 14 14 11 9 8 9 9 8 8 9 8 7 8 8 8 8 8 8 9 10 11 12 13 13 14 15 16 16 16 17 16 16 16 16 16 16 16 17 17 17 16 17 17 17 18 18 18 18 18 17 16 16 15 15 15 14
1 2 3 2 2 1 5 10 17 19 15 15 14 13 12 11 10 13 14 7 7 11 12 19 26 30 31 29 25 24 22 21 20 18 17 16 16 15 14 15 15 15 14 11 10 10 9 9 9 8 9 8 8 8 7 8 9 8 8 8 10 11 12 12 13 14 14 15 16 16 15 15 15 15 14 14 14 15 16 16 16 17 18 19 19 18 18 17 17 16 15 15 14 14 14 15 15
2 2 3 1 4 4 8 13 19 20 17 14 13 12 12 12 10 10 7 4 9 15 14 19 25 28 29 28 25 24 22 21 20 19 17 17 16 16 16 16 16 14 12 10 9 10 10 9 9 8 8 9 9 8 7 8 9 8 8 8 10 11 12 12 14 14 14 14 14 14 14 14 14 14 13 14 15 16 16 17 17 18 18 19 18 17 16 15 15 14 14 13 13 13 13 13 14
3 3 1 3 3 6 9 12 19 20 16 14 13 13 12 12 11 8 6 7 13 17 17 21 26 26 25 26 25 24 22 21 20 19 18 16 15 16 16 15 14 12 11 10 9 9 9 9 9 8 8 9 9 9 8 8 8 9 8 9 10 11 12 13 14 14 13 14 14 14 14 15 15 14 15 16 17 17 18 18 18 18 17 16 16 15 14 13 13 13 13 13 13 13 13 13 13
4 3 1 5 5 7 7 10 16 17 16 15 15 13 9 11 13 8 7 11 16 17 19 23 27 25 23 24 24 23 23 21 20 20 18 16 14 15 15 14 13 11 10 10 10 8 8 9 9 8 8 9 9 9 8 8 8 9 8 9 10 11 11 12 14 13 13 14 15 15 15 16 16 16 17 18 18 18 18 18 17 16 15 14 14 13 13 12 12 13 13 13 13 14 14 14 14
5 5 3 5 7 8 8 9 12 14 15 14 14 11 9 13 14 7 7 15 18 19 21 24 27 24 22 22 23 23 23 21 21 20 18 17 16 15 15 14 13 11 11 10 10 9 8 9 8 8 8 9 10 10 9 9 9 8 8 9 10 10 11 12 13 13 14 15 15 16 16 16 17 16 17 18 18 17 17 16 15 13 13 12 11 12 12 12 13 13 12 12 13 13 13 13 14
8 8 6 7 8 7 6 8 8 10 11 9 12 10 8 12 10 3 9 18 20 21 22 24 26 23 21 22 22 23 23 22 21 19 18 17 17 16 15 15 13 12 11 10 10 9 8 9 8 8 8 9 10 11 10 9 9 8 9 9 9 10 11 12 13 13 14 15 15 16 16 16 17 16 16 16 16 15 14 13 12 11 11 10 10 11 11 11 11 11 11 11 11 12 12 12 12
12 12 12 8 8 8 6 7 6 6 5 6 13 11 7 6 4 5 15 20 21 23 22 23 23 21 20 21 22 21 21 20 18 18 18 18 17 16 15 15 14 12 12 11 10 9 9 9 9 8 8 9 10 11 11 10 9 9 9 9 10 11 11 12 13 14 15 15 16 16 16 16 15 15 14 13 13 12 11 10 9 9 9 9 9 10 10 9 9 9 10 10 11 11 11 11 10
12 10 9 6 6 6 5 5 4 2 4 8 13 9 5 5 4 10 20 22 22 24 23 22 21 20 19 20 20 19 18 16 16 18 18 18 16 15 15 14 13 12 12 11 10 10 9 9 9 8 9 9 10 11 12 11 10 10 10 10 10 11 11 12 13 13 14 15 15 15 15 14 13 12 11 11 10 10 9 8 8 8 8 9 9 9 8 7 7 8 9 9 9 10 10 10 9
8 5 5 5 4 3 2 4 4 2 6 9 6 3 4 5 7 13 20 23 23 22 22 22 21 19 18 18 18 17 17 16 18 19 17 17 16 14 14 13 12 11 11 12 11 10 10 9 9 9 9 10 11 11 12 12 12 11 10 10 11 11 12 12 12 12 12 13 13 13 13 12 12 11 10 10 9 9 8 8 7 7 8 8 8 7 6 5 6 6 7 8 8 8 8 8 8
6 4 4 3 3 3 2 3 5 4 8 6 1 2 4 5 9 14 19 23 24 21 20 22 21 19 18 17 17 17 17 17 18 18 15 15 15 14 14 12 12 12 12 12 11 11 10 10 9 9 10 11 11 12 13 13 12 12 11 11 12 12 12 12 12 12 11 11 11 12 11 11 11 10 9 9 9 8 8 7 7 7 7 7 6 5 4 4 5 5 5 6 7 7 7 8 9
3 3 3 2 3 4 2 4 5 4 5 3 1 1 3 5 11 15 18 21 22 20 20 21 20 20 19 17 16 16 16 16 16 17 15 13 14 14 13 13 12 12 12 12 11 11 10 10 10 9 10 11 12 12 13 14 13 12 12 12 13 13 13 12 12 11 10 10 10 10 10 9 9 8 8 7 8 8 7 7 6 6 5 5 4 4 4 4 4 4 4 5 5 6 7 8 8
3 2 2 4 4 4 2 5 7 5 5 3 1 2 2 4 10 14 18 21 20 19 20 20 20 20 19 18 16 16 16 16 16 16 16 14 14 14 13 12 13 13 12 11 11 11 11 10 10 10 10 11 12 13 14 14 14 13 13 13 13 13 13 13 12 11 11 10 10 9 8 8 7 7 7 7 7 7 6 5 5 4 4 3 3 3 3 2 2 3 4 4 5 5 7 7 8
4 1 1 4 5 6 4 4 7 8 9 6 3 2 1 4 11 14 16 20 20 18 19 20 19 19 18 17 17 16 17 17 17 17 17 15 14 14 13 12 12 13 12 12 11 11 10 10 10 11 11 12 13 14 15 15 15 14 15 14 13 13 12 12 12 11 11 11 10 9 8 8 7 7 6 7 7 6 5 4 4 4 3 3 2 3 2 2 2 2 3 4 5 6 7 7 8
6 4 2 3 5 6 6 5 7 12 12 9 7 4 1 6 12 14 14 18 20 18 18 19 18 18 17 17 17 17 17 17 18 18 17 16 14 14 14 13 13 13 13 13 12 11 11 10 10 12 12 13 15 15 15 16 16 15 15 15 14 13 12 12 11 11 10 10 9 8 8 8 7 6 6 7 7 6 5 4 4 5 4 4 3 3 3 2 2 2 2 3 5 6 7 7 7
8 7 3 2 4 4 5 5 8 13 11 8 9 6 4 7 11 14 14 16 18 17 17 18 17 18 17 16 17 16 17 18 18 18 16 15 15 14 14 14 13 13 13 13 13 12 12 11 11 12 13 15 16 17 17 17 17 16 16 16 14 13 12 11 11 10 9 8 8 8 7 7 6 6 6 6 6 6 5 5 6 6 5 5 4 3 2 1 1 2 2 2 4 6 7 7 7
5 5 4 1 2 3 5 6 9 13 8 7 9 5 5 7 10 14 14 13 16 18 18 18 18 19 18 17 17 17 18 18 17 18 17 15 15 15 15 14 13 14 14 14 15 14 13 12 13 13 14 16 17 17 17 17 18 17 16 16 14 13 12 11 10 9 9 8 8 8 7 7 6 6 6 6 5 5 5 6 6 6 5 4 3 2 1 1 1 1 1 1 3 5 6 7 7
5 4 4 3 3 2 3 5 11 13 7 5 8 6 6 7 9 14 13 13 17 21 21 20 20 19 18 18 18 18 18 17 16 18 18 16 16 16 15 15 14 14 15 16 16 15 14 13 13 14 14 16 17 17 16 17 17 16 15 14 13 12 11 10 9 8 9 9 9 9 8 7 7 7 6 6 6 5 5 5 5 4 4 3 2 2 1 1 1 0 0 1 2 4 5 7 8
4 4 6 3 4 4 4 4 10 11 6 4 8 7 5 6 8 13 15 13 15 21 22 22 22 20 18 20 19 18 18 17 18 19 19 18 17 17 16 15 14 14 15 17 17 16 15 14 14 14 15 15 16 17 16 15 15 14 13 13 12 12 11 10 9 9 9 9 9 9 9 8 8 7 6 6 6 6 6 5 4 4 4 3 2 2 1 1 1 1 1 1 2 4 5 6 7
2 4 6 2 5 4 2 5 10 9 4 3 8 5 2 4 7 10 14 13 11 15 16 16 20 20 19 20 20 20 20 19 20 19 19 20 19 19 18 17 15 14 16 18 18 18 17 15 15 15 15 15 16 17 16 15 14 13 13 13 13 13 12 11 10 10 10 10 10 9 9 8 8 7 7 7 6 6 5 5 5 4 4 4 3 2 1 1 1 2 1 0 1 3 4 5 6
2 4 5 4 5 3 1 6 10 7 2 3 8 4 1 5 7 8 11 11 10 13 12 10 14 18 19 19 21 23 23 22 22 20 20 21 21 21 19 18 16 15 17 18 19 19 18 16 15 14 15 16 16 16 16 16 15 15 14 14 14 14 13 13 13 12 12 11 10 9 9 8 8 8 8 8 7 5 4 4 4 4 4 4 3 2 2 2 2 2 2 1 1 2 3 4 5
2 5 8 7 6 5 6 11 10 5 3 6 8 4 2 6 9 9 9 9 11 14 15 14 13 15 18 20 21 24 24 24 24 22 21 22 22 22 21 19 18 17 17 19 18 19 19 17 16 14 15 16 16 16 17 17 17 16 16 15 15 15 15 15 14 13 12 10 9 9 8 8 8 9 9 8 7 6 4 4 4 4 4 4 3 3 3 3 2 2 1 1 0 1 2 3 4
2 3 7 9 7 9 12 13 9 4 2 6 9 5 1 4 8 10 10 11 13 12 15 20 17 15 17 20 22 23 24 24 24 24 23 24 24 23 22 21 20 19 19 19 18 18 19 19 17 16 15 15 16 17 17 18 18 17 16 15 14 14 14 14 13 12 11 10 9 8 8 8 8 8 8 8 7 6 5 4 4 4 4 4 4 3 3 3 2 2 1 1 0 1 1 2 3
1 2 4 8 8 10 14 12 7 2 2 5 8 5 2 2 5 10 13 13 13 11 12 18 22 20 17 18 21 24 26 26 26 26 26 26 25 24 23 22 22 20 20 20 19 17 18 19 18 17 16 16 16 17 17 18 19 18 16 15 15 15 14 12 11 11 10 9 9 9 8 7 7 7 7 7 7 6 5 5 4 4 4 4 4 4 4 3 2 1 1 1 0 1 1 2 1
1 3 3 5 7 9 11 8 3 2 3 5 7 5 4 2 2 8 12 12 14 16 14 16 22 24 21 19 19 22 28 30 28 28 28 28 27 25 23 23 22 22 21 21 20 18 17 18 19 18 17 17 17 17 17 18 19 18 16 15 15 15 13 12 11 10 10 9 9 9 8 7 6 6 6 7 6 6 5 5 5 4 4 4 4 4 3 3 2 2 2 1 1 2 1 1 1
2 5 5 5 5 6 6 4 2 3 3 4 8 9 5 2 3 7 10 11 14 16 14 17 23 25 24 22 20 20 27 32 30 29 29 29 28 25 24 23 23 24 23 22 21 20 18 18 19 19 18 18 18 18 18 18 19 19 18 16 15 15 14 13 12 11 10 10 9 9 8 7 7 7 7 6 6 6 6 6 5 5 5 5 5 4 4 3 3 2 2 2 3 3 2 2 2
5 7 7 8 7 6 4 2 2 3 3 2 8 11 6 2 3 7 9 7 10 13 11 15 23 25 24 24 23 21 25 31 31 31 31 30 28 26 25 25 23 24 25 24 23 22 20 19 20 19 18 19 19 19 19 18 19 20 19 17 16 15 15 14 13 12 11 10 9 9 8 8 7 7 7 7 7 7 7 6 6 6 6 5 4 4 4 3 3 3 3 3 4 4 4 4 3
2 4 6 6 5 4 3 2 1 3 2 2 4 11 8 5 2 5 8 5 5 10 12 14 20 24 26 26 26 24 25 29 32 32 32 30 29 28 28 27 26 26 26 25 25 23 22 21 20 19 19 19 20 20 19 19 19 20 20 18 17 16 16 15 14 12 11 10 9 9 9 9 8 8 9 8 8 8 7 6 6 6 5 5 4 4 4 4 4 3 3 4 4 4 4 4 4
3 4 6 5 3 3 2 2 2 4 2 3 1 7 6 5 1 2 7 9 7 9 13 17 20 25 27 28 30 28 25 27 30 32 32 31 30 30 29 29 28 27 26 26 25 24 23 22 21 20 19 19 20 21 20 20 20 20 19 19 18 17 17 16 14 12 11 10 9 9 9 9 9 9 9 9 8 8 7 6 6 5 5 5 4 4 4 4 4 3 4 4 4 4 4 4 4
6 6 6 6 4 4 3 2 1 3 3 2 3 5 3 4 1 2 3 8 10 11 14 17 21 25 26 28 34 35 28 26 29 31 32 32 31 30 30 29 28 27 26 26 26 25 24 23 22 21 20 19 19 21 21 21 20 20 19 19 18 18 17 16 14 12 11 10 9 9 9 9 9 9 8 8 8 8 7 7 6 6 6 5 4 4 4 4 4 4 4 4 4 4 4 4 4
7 6 5 5 5 4 3 4 4 2 2 4 5 4 3 2 2 2 4 6 9 12 13 15 19 22 22 24 31 34 30 27 28 30 32 32 31 30 30 29 27 27 27 26 26 26 24 23 23 22 20 19 20 21 22 21 21 21 20 19 18 18 18 16 14 13 12 11 10 9 9 9 9 8 8 8 8 8 8 7 7 6 6 6 5 5 5 4 4 4 4 4 4 4 4 4 4
4 4 5 4 5 4 2 2 3 1 2 3 3 3 2 1 1 2 4 4 3 7 12 14 16 19 19 20 24 28 29 28 28 29 31 32 31 30 30 29 28 28 27 27 26 25 25 24 23 22 21 20 20 21 21 21 21 21 20 19 18 18 17 16 15 14 13 12 11 9 8 9 8 7 7 8 8 9 8 8 7 7 7 7 6 6 6 5 4 4 5 4 4 4 3 3 4
3 4 6 2 1 3 2 1 1 1 3 3 3 4 1 1 2 1 4 4 3 4 10 13 15 18 20 21 23 24 27 28 28 29 31 32 31 31 30 30 29 30 29 27 26 24 24 23 23 23 22 22 21 21 21 21 20 20 20 19 18 18 17 17 16 15 13 13 12 10 9 9 9 8 7 8 8 9 8 8 8 7 8 7 7 6 6 5 5 5 5 5 5 5 4 4 4
4 5 6 4 1 1 0 2 2 2 4 3 3 6 3 2 2 1 4 5 5 3 8 12 13 17 20 21 23 25 29 30 28 29 30 30 30 31 31 30 30 30 29 27 25 24 24 24 23 23 23 22 21 21 21 21 21 20 20 20 19 18 18 18 17 15 14 14 13 12 11 10 10 9 8 8 9 9 9 9 9 8 8 8 7 7 6 6 6 5 5 6 6 6 5 4 4
1 2 7 5 3 4 2 2 3 4 3 2 3 4 4 4 3 1 3 4 3 2 5 8 12 15 18 20 21 25 29 29 26 26 27 28 29 29 30 30 30 31 30 29 27 27 27 26 25 24 22 21 20 20 21 21 21 21 20 20 20 19 19 18 18 17 16 15 14 13 12 11 11 11 9 9 9 9 9 10 9 9 9 9 8 7 7 6 6 6 6 6 7 7 6 6 5
1 1 5 3 2 4 4 2 2 3 3 3 3 2 3 3 1 1 2 2 1 3 4 5 8 12 15 18 20 20 22 25 26 24 25 26 27 28 28 28 29 30 30 30 30 30 29 28 27 26 24 22 21 21 20 20 21 21 21 20 20 20 20 19 18 18 17 17 16 14 12 12 12 12 10 9 9 9 9 9 9 9 9 9 9 7 7 7 7 7 6 6 7 7 7 7 6
5 5 6 3 0 1 2 1 0 1 3 3 4 3 2 1 1 1 1 1 1 3 4 4 6 7 9 12 16 17 18 22 27 27 26 26 26 26 26 26 26 27 28 29 31 31 30 29 29 27 26 25 24 23 21 20 20 21 21 21 21 21 21 20 20 19 18 18 17 15 13 13 13 12 11 10 10 9 9 9 10 10 10 10 10 9 8 8 7 7 7 7 8 8 7 7 7
4 6 7 7 4 3 5 4 1 0 2 2 3 4 2 3 2 3 2 3 3 3 4 5 5 6 7 8 13 17 19 23 27 28 29 28 27 25 25 25 25 25 26 28 29 30 30 30 29 28 27 26 25 24 23 21 20 20 21 20 20 21 21 21 21 21 19 18 17 16 14 14 13 13 12 11 10 10 10 10 10 11 11 11 11 10 9 8 8 7 7 8 8 8 8 8 8
Wind_Direction
152 141 130 130 120 105 86 233 223 101 117 104 100 118 91 98 128 123 127 128 123 141 135 137 142 136 131 121 119 91 78 116 108 360 105 136 147 148 150 146 142 143 139 137 137 133 128 126 126 123 118 112 109 110 108 101 92 86 83 83 89 99 104 107 113 119 121 125 122 114 114 118 130 139 140 137 140 138 127 124 124 124 120 116 114 111 109 106 104 102 99 100 104 106 107 106 105
144 133 127 113 77 28 102 243 254 97 131 133 113 97 106 125 143 133 136 136 128 143 140 140 138 120 120 110 114 107 79 51 41 101 122 141 146 149 151 144 141 141 138 137 137 134 131 128 127 122 116 111 110 106 100 95 84 80 82 84 86 91 97 103 107 102 100 105 108 111 116 124 134 135 136 141 142 135 126 128 130 126 121 118 116 112 110 107 104 102 101 102 104 107 109 108 104
145 128 116 89 42 22 88 329 30 125 170 149 119 107 133 140 142 133 130 120 125 138 139 142 126 97 122 121 108 99 79 45 112 126 132 144 149 150 148 145 145 143 139 138 138 137 131 126 125 120 114 108 105 99 94 91 84 81 80 81 82 85 90 94 91 87 91 98 102 110 120 127 132 129 134 141 139 132 129 135 131 122 118 118 117 113 113 111 106 102 102 102 105 110 110 106 102
148 120 89 59 35 34 32 81 72 180 188 146 128 130 142 139 134 127 120 120 132 140 141 142 116 97 120 117 87 62 86 100 130 134 139 149 152 148 144 145 147 145 141 138 138 134 125 125 123 116 110 106 103 97 94 89 83 79 75 75 78 81 83 82 79 85 93 99 109 116 122 125 124 126 132 135 131 130 132 134 127 122 122 121 118 114 114 112 107 105 106 106 110 110 106 102 100
143 117 68 36 21 33 11 71 85 204 155 117 131 131 131 134 130 122 120 127 139 145 144 141 115 106 101 83 49 70 100 121 140 142 146 153 153 146 142 143 146 147 143 139 136 129 126 127 121 114 109 107 103 98 96 86 79 75 75 77 80 81 79 79 77 83 89 96 112 119 123 124 121 123 128 128 127 130 132 130 124 125 125 122 117 114 115 114 110 110 110 109 109 106 102 101 99
128 95 48 40 49 57 337 70 108 99 71 83 135 130 131 135 129 124 124 126 139 148 145 131 120 119 98 67 57 86 109 138 148 148 150 154 153 147 141 142 147 150 145 139 133 128 132 128 119 112 108 106 99 96 93 86 83 78 78 79 83 82 75 77 77 79 85 94 105 113 117 118 118 121 126 126 126 128 130 127 125 125 124 122 119 117 118 116 113 113 110 106 104 101 101 100 98
106 62 34 37 63 32 312 52 53 83 59 66 137 134 133 134 130 130 132 129 136 149 147 125 126 116 96 85 76 70 107 154 152 151 152 155 155 149 143 145 149 151 144 137 132 133 135 127 120 114 109 103 97 96 93 90 89 84 81 80 82 81 74 76 82 84 87 95 103 109 108 109 113 118 124 124 125 126 125 124 125 125 122 123 122 120 118 117 117 115 111 106 102 99 100 101 99
78 52 34 24 69 22 338 39 46 81 65 95 122 126 130 136 137 138 141 139 145 155 152 142 132 102 83 102 88 61 118 152 154 152 153 156 156 151 147 149 152 151 144 138 135 135 134 128 122 115 112 103 98 95 94 94 92 88 83 82 83 81 78 78 84 86 88 94 104 109 104 106 111 116 120 121 125 127 124 124 124 122 120 122 121 118 116 117 120 121 118 112 105 100 98 101 101
62 49 38 38 70 27 25 35 76 92 95 115 115 116 125 137 141 142 144 141 147 150 150 159 144 98 102 96 92 87 118 150 153 150 152 156 155 150 149 151 153 151 144 140 136 134 134 129 120 112 109 103 100 95 94 93 88 87 83 84 83 78 76 73 74 80 86 93 100 102 102 109 112 112 115 119 123 125 124 124 123 120 119 122 120 116 116 118 124 127 120 113 106 100 95 95 98
50 41 26 39 82 43 123 84 107 98 103 111 105 115 128 138 140 141 142 141 145 140 138 144 106 112 121 97 94 104 130 152 151 150 152 154 154 149 149 151 154 152 144 140 135 134 135 129 119 111 108 102 99 98 97 94 88 87 85 84 79 75 75 72 69 73 83 93 98 98 101 109 110 107 111 118 121 123 122 122 122 119 118 121 118 118 120 121 125 125 115 108 104 99 95 92 92
27 36 20 262 105 123 170 130 123 113 114 109 103 115 130 136 130 128 131 132 138 134 133 130 108 117 117 97 98 120 141 153 153 151 151 152 152 149 150 152 155 154 146 143 137 135 134 130 124 116 116 107 99 100 100 96 91 89 88 85 78 74 73 75 72 73 85 94 97 99 103 104 104 107 112 116 118 119 119 119 120 117 119 118 114 115 119 120 122 118 109 103 99 96 94 91 89
353 9 352 334 75 94 137 136 134 126 124 123 118 123 136 134 125 129 129 130 135 132 136 146 133 124 110 101 113 131 143 153 153 150 149 152 152 151 153 153 157 156 151 147 139 137 136 136 128 119 117 109 103 102 99 97 94 92 89 84 81 76 72 72 73 78 88 94 97 99 101 101 104 109 112 113 115 116 115 115 115 115 117 115 113 114 113 114 116 111 104 100 96 93 92 89 88
350 354 340 342 360 95 122 141 138 132 129 125 127 132 139 128 126 135 127 128 135 131 130 148 144 126 106 111 125 138 144 154 153 149 151 154 153 154 157 157 159 160 158 151 142 143 141 140 131 117 111 106 107 105 102 97 93 91 87 82 80 79 76 72 75 84 90 94 97 97 98 102 105 108 110 112 113 112 110 111 111 112 112 108 108 109 106 106 106 102 98 97 94 91 90 89 89
331 356 334 332 324 159 122 141 149 142 136 124 124 134 130 104 130 137 127 123 121 124 126 143 141 117 116 121 134 148 151 156 154 151 154 155 155 157 160 161 162 163 162 155 150 152 144 141 132 119 114 106 108 109 104 100 96 91 85 82 79 79 82 82 82 87 94 96 96 97 100 104 105 106 108 109 108 108 109 108 106 106 105 102 102 103 104 103 100 96 95 94 92 89 89 90 90
303 359 315 299 309 160 135 154 161 148 139 134 134 134 109 97 135 135 126 120 109 126 131 141 141 123 148 149 152 158 156 156 154 154 155 154 157 159 162 164 166 166 164 161 159 156 145 140 130 120 116 111 113 114 108 103 97 91 84 82 80 80 85 90 89 89 94 95 96 99 100 103 105 107 107 107 107 107 106 104 105 105 105 103 102 102 103 100 96 94 94 92 89 88 89 89 88
356 346 303 312 266 177 143 160 165 152 145 137 137 129 106 101 130 125 124 125 120 131 131 138 147 144 157 151 153 157 154 153 153 156 156 155 158 159 161 163 166 168 167 167 164 156 149 141 130 121 116 110 116 121 114 105 97 92 87 84 82 80 83 91 93 94 96 94 95 98 99 102 104 106 107 107 106 104 103 103 107 109 106 102 99 98 96 94 93 93 92 90 87 87 87 87 85
337 312 298 347 250 182 153 175 179 148 144 138 141 135 118 114 116 111 117 119 116 124 120 120 114 131 146 148 151 153 152 153 155 159 159 157 158 157 160 162 165 171 173 172 166 159 151 142 129 121 115 107 115 122 116 106 100 96 89 85 80 77 80 87 93 97 100 98 95 96 98 100 102 104 106 105 103 102 102 101 105 107 102 98 96 95 93 93 93 93 91 88 85 84 84 84 83
279 307 317 341 181 188 177 176 163 138 145 142 143 139 130 129 121 117 115 107 106 107 104 107 105 122 145 150 149 149 152 156 157 161 159 158 159 159 161 163 169 175 176 172 168 163 154 144 134 125 115 109 115 121 119 111 105 101 94 90 82 78 79 84 91 97 101 102 101 100 99 98 99 101 102 103 104 102 97 94 101 105 102 98 96 94 94 94 93 92 89 86 83 83 83 82 80
247 292 331 353 5 198 156 141 142 149 147 138 134 136 132 131 131 132 127 118 117 111 105 112 112 119 138 145 147 150 154 156 159 162 159 159 161 161 163 166 172 177 175 170 164 164 159 149 138 131 122 115 118 120 121 115 107 104 99 93 86 82 82 84 90 94 99 104 107 106 102 100 100 100 100 101 104 103 99 99 105 107 103 99 95 94 93 93 93 90 87 84 82 81 80 78 77
240 267 345 16 18 109 118 114 127 137 139 132 127 129 123 128 137 139 134 130 131 131 132 131 128 133 139 144 149 152 156 157 160 163 161 161 162 163 165 167 173 179 176 168 162 166 165 153 137 133 129 120 121 121 119 116 108 102 99 93 87 84 84 86 89 93 96 99 104 105 104 102 100 99 100 101 102 102 102 106 109 108 104 99 95 95 94 93 92 88 84 82 81 79 77 76 74
198 251 6 53 59 91 126 140 130 131 133 123 123 127 121 130 140 138 136 134 142 151 152 151 146 145 145 148 153 155 157 159 162 164 164 163 163 165 167 168 174 180 178 169 165 169 168 157 140 133 133 127 120 118 118 119 112 100 96 93 88 85 86 90 92 93 95 98 100 102 102 101 99 99 99 100 102 104 105 107 107 107 104 101 98 97 96 93 90 85 81 82 81 79 78 78 77
224 278 1 102 176 115 145 150 137 136 130 117 125 133 130 132 132 142 145 137 155 158 162 160 153 150 151 151 154 157 157 160 165 167 167 166 167 169 171 172 175 180 179 174 172 170 167 161 149 137 135 133 125 121 122 123 118 106 98 95 92 90 90 95 98 98 98 100 100 100 100 99 99 100 99 101 103 108 111 110 108 107 105 104 101 99 96 93 88 81 79 81 82 80 79 78 77
242 7 20 186 211 151 145 150 144 143 133 122 131 132 129 128 125 139 128 90 147 156 161 160 153 151 152 152 154 158 160 163 167 171 174 172 171 174 177 177 177 179 177 176 177 168 163 161 152 143 139 138 133 133 132 128 123 114 107 102 101 99 99 101 103 104 102 103 104 104 104 103 102 101 101 101 103 109 114 113 111 109 108 106 102 98 94 89 82 77 77 80 81 78 75 74 73
243 342 22 169 170 143 144 151 150 146 133 126 129 130 132 132 134 133 93 103 149 158 161 159 153 151 151 153 155 159 162 165 169 175 180 178 176 178 180 180 180 179 177 176 174 166 163 160 152 147 145 143 140 140 139 135 126 120 118 114 110 107 105 106 107 108 106 106 108 108 109 108 108 106 105 104 106 110 114 115 114 112 110 105 100 95 90 84 78 77 78 79 78 75 73 73 74
214 284 203 145 132 138 139 144 150 141 129 128 127 124 123 131 137 127 102 129 149 155 158 159 154 152 154 156 157 160 163 165 171 177 182 183 181 180 180 182 182 179 177 177 169 164 166 162 155 151 150 150 146 144 145 143 133 127 127 121 116 111 108 108 109 110 110 109 109 110 112 112 111 110 109 109 110 114 116 117 116 114 111 105 99 94 89 84 80 78 78 77 75 75 76 75 76
191 208 174 142 131 137 135 137 148 137 131 132 123 112 104 127 133 109 118 140 148 152 154 158 156 154 157 159 160 163 166 169 174 179 182 186 186 185 183 183 184 178 176 179 170 164 170 166 158 155 155 156 152 148 149 150 143 137 133 125 120 116 112 111 111 112 112 111 111 111 113 114 113 112 112 112 114 116 118 118 116 113 109 105 100 95 91 85 79 75 73 73 72 73 74 75 75
168 163 117 115 116 114 122 128 138 134 137 135 123 117 107 134 145 115 140 147 149 149 150 156 158 158 160 161 164 168 170 173 176 179 181 186 189 190 187 184 183 181 179 178 172 168 172 169 162 162 162 160 157 152 152 154 152 148 142 134 129 123 117 117 117 117 116 113 113 112 112 113 113 113 113 114 116 117 118 117 114 112 109 106 100 95 90 81 76 74 73 74 74 75 75 75 73
151 136 97 83 91 85 91 113 128 131 148 137 118 115 109 140 164 137 147 152 153 150 149 156 159 161 163 164 168 170 173 173 175 180 185 188 189 189 189 186 182 182 182 178 175 174 175 173 166 167 166 164 162 155 153 155 157 156 150 142 136 131 124 123 124 123 121 118 116 115 115 116 115 115 114 115 118 118 119 117 113 111 108 103 98 94 90 84 80 79 79 77 76 78 75 73 71
149 136 102 87 92 83 83 110 133 136 168 145 119 112 135 164 144 138 150 155 156 153 152 158 160 163 164 164 167 170 173 174 178 183 188 190 190 189 189 187 183 183 183 179 178 178 180 179 172 172 172 169 166 159 156 156 159 160 156 149 143 138 131 128 129 128 127 123 121 120 119 119 119 120 120 120 122 123 123 118 114 112 105 102 100 99 96 89 84 81 79 77 76 76 71 68 62
151 133 117 120 122 102 93 119 124 126 159 152 131 137 172 164 139 145 155 156 155 154 156 160 163 165 166 166 167 171 177 180 184 186 188 192 192 193 192 190 186 185 184 181 180 182 185 183 180 180 175 172 171 164 159 158 160 161 158 154 149 145 138 133 133 132 130 127 125 125 123 122 122 122 122 122 122 125 127 123 117 112 106 105 105 103 96 87 84 81 77 75 76 72 67 62 50
156 138 137 137 151 142 133 139 129 147 164 149 22 227 171 154 149 153 160 160 157 157 161 164 165 167 169 171 170 173 181 186 188 188 190 193 194 197 198 193 186 186 188 184 182 184 188 187 187 186 176 174 174 168 163 161 160 162 159 158 154 150 146 141 139 137 135 132 130 130 129 127 126 124 122 121 121 124 126 124 118 112 109 109 107 100 89 78 77 76 71 67 67 63 58 55 46
165 160 152 157 164 141 169 191 166 171 171 146 10 191 159 151 157 158 163 166 161 160 165 167 167 170 171 175 175 175 181 188 192 193 195 196 196 199 199 195 188 186 186 186 188 187 187 189 190 187 180 176 176 171 168 164 161 161 161 160 157 154 152 149 147 145 143 141 138 139 140 138 136 131 125 123 126 128 130 126 118 111 113 118 111 94 76 67 68 69 59 49 48 46 41 40 40
187 242 169 156 157 146 170 205 198 182 159 172 272 151 119 144 159 160 166 171 167 163 167 170 170 171 173 177 179 179 181 187 195 199 199 197 197 199 198 193 188 185 184 187 193 191 185 186 187 184 181 178 177 175 171 166 163 161 161 162 161 159 157 155 155 153 150 148 146 145 147 148 147 141 134 131 133 136 136 129 124 121 124 126 106 88 75 68 68 58 44 35 30 31 31 25 27
188 248 152 144 153 160 159 193 206 184 168 186 211 178 89 137 159 161 168 174 174 170 169 172 173 173 176 178 181 184 184 188 196 199 199 198 197 199 201 197 191 188 187 189 195 196 187 184 183 181 180 179 180 179 175 170 166 163 163 163 165 167 165 163 160 157 156 154 153 150 149 152 150 143 138 136 138 142 143 138 139 137 131 126 109 102 100 99 97 63 37 34 31 30 30 24 22
176 176 159 132 156 177 176 172 181 179 178 183 187 198 154 142 159 165 170 176 181 179 173 172 176 178 178 180 185 189 190 194 199 200 198 199 200 203 206 204 198 193 190 190 193 196 190 184 183 182 181 181 182 182 179 176 172 168 165 164 166 170 171 167 162 159 158 157 157 153 151 152 149 143 138 137 138 141 143 142 138 130 123 120 117 113 112 116 109 83 49 32 30 31 29 24 24
174 167 167 145 158 178 183 169 165 175 181 184 185 191 169 158 166 171 172 177 184 184 178 177 179 182 183 184 190 193 198 201 203 203 201 202 206 208 210 207 203 199 195 193 193 196 193 187 187 186 183 182 184 185 183 181 178 173 169 166 164 166 167 166 162 159 158 160 159 155 154 153 149 148 145 139 140 140 138 136 129 124 120 118 111 101 107 131 103 85 55 31 28 26 21 19 19
149 142 141 170 209 160 164 165 167 178 183 185 186 182 171 172 174 177 171 170 183 187 185 185 184 186 186 188 193 197 204 205 205 208 205 205 209 212 214 209 204 202 199 197 195 196 194 190 192 191 188 186 187 187 185 184 182 178 175 170 166 164 165 164 163 161 162 165 162 158 159 157 152 152 150 143 143 142 137 134 130 127 124 119 112 105 117 161 121 82 40 44 42 22 12 12 13
130 135 101 355 280 147 137 166 169 183 194 179 183 185 178 181 180 179 172 169 186 192 192 192 191 189 188 190 195 200 205 205 205 210 209 208 211 213 214 211 206 202 201 199 196 195 195 195 195 196 195 190 188 189 189 188 185 183 179 176 173 171 169 167 167 166 167 169 165 162 162 160 155 153 149 144 142 144 142 141 140 138 140 135 129 125 131 166 155 139 106 71 49 22 8 8 10
142 125 87 358 270 128 102 163 167 182 203 176 182 194 180 180 182 178 181 186 191 193 195 198 195 191 190 193 196 200 204 205 205 209 210 210 212 213 214 214 210 203 202 201 197 195 196 199 198 199 200 196 192 191 192 191 187 186 185 184 184 182 179 175 173 173 173 172 170 169 168 164 158 153 150 145 141 143 144 148 149 152 159 151 143 143 147 171 186 208 199 100 35 19 9 4 10
151 129 126 194 217 161 102 162 169 178 201 177 178 192 178 177 186 184 192 197 194 193 195 197 196 195 196 195 198 202 204 205 206 207 208 210 214 214 214 215 213 207 204 202 198 195 196 200 201 200 201 200 199 196 194 194 191 191 190 191 193 192 189 184 182 181 178 176 176 175 174 171 163 158 158 154 147 143 144 151 154 158 165 156 148 153 160 174 198 223 214 165 23 18 11 2 9
173 182 186 194 191 197 75 147 165 168 172 170 162 168 228 197 198 195 194 196 198 200 198 193 194 198 199 198 203 208 208 209 208 205 206 211 215 216 214 213 212 209 204 199 197 196 197 200 201 203 203 202 202 200 197 196 195 195 194 194 197 197 194 191 188 187 184 182 181 179 178 176 170 167 169 164 155 148 144 151 154 157 164 162 159 167 176 184 190 205 199 196 339 4 4 2 9
206 206 212 216 189 154 131 145 158 166 191 191 178 189 217 193 205 203 187 191 201 203 206 205 196 195 199 200 205 211 212 213 214 210 209 213 217 218 216 213 212 210 203 196 196 197 199 200 200 203 204 204 203 200 197 196 195 195 194 195 198 198 196 193 189 188 186 184 183 184 184 181 175 173 173 168 159 154 155 161 164 165 172 176 174 176 184 188 185 178 170 166 349 349 355 6 8
243 203 204 214 191 144 147 159 170 190 189 186 200 233 239 185 211 204 185 194 203 201 209 212 205 197 199 201 205 210 212 213 215 214 214 217 219 221 220 215 211 210 202 195 195 197 200 202 202 202 203 206 206 201 197 197 195 193 194 197 199 199 197 194 189 185 183 181 185 190 193 189 180 175 175 172 165 163 169 176 178 177 184 191 188 182 184 186 185 166 141 141 58 332 323 350 358
243 80 174 194 181 158 163 172 187 205 101 152 197 239 274 228 212 196 187 198 207 205 212 215 211 206 203 202 205 209 213 214 214 215 217 220 222 223 223 217 213 211 206 201 199 198 200 202 202 202 202 204 207 206 201 199 198 197 198 199 198 197 195 193 186 180 177 177 181 188 192 191 186 181 181 180 175 174 182 189 189 188 194 199 196 191 190 190 189 180 176 208 256 280 281 309 326
342 79 128 174 180 172 172 179 189 168 149 172 189 208 241 240 162 179 186 198 212 214 213 213 213 210 206 204 205 208 215 218 217 218 220 221 224 226 225 221 215 213 211 207 203 202 202 203 203 203 203 202 205 208 206 203 202 202 205 204 199 194 191 188 184 181 180 180 180 183 187 189 190 190 189 189 187 187 193 196 195 197 202 204 200 199 204 206 202 200 211 222 224 242 261 274 261
113 118 107 119 141 141 152 177 158 155 215 215 186 195 231 230 145 170 184 201 217 216 212 211 212 211 208 206 204 204 214 219 219 221 223 225 226 229 229 226 220 215 214 212 209 208 205 203 202 202 204 204 204 207 208 205 204 206 208 207 202 195 189 187 187 187 189 191 189 186 185 189 193 193 194 195 193 195 200 201 200 203 208 210 205 205 211 213 214 214 219 227 225 231 246 255 252
120 126 110 103 115 113 105 116 137 183 234 209 180 195 228 259 164 178 188 204 218 209 204 207 209 209 207 206 204 203 210 215 217 220 224 227 228 230 231 229 224 217 215 215 215 214 210 205 203 203 204 206 205 206 207 207 206 208 211 210 206 200 193 191 193 193 194 198 201 196 190 192 195 196 195 194 193 196 204 205 204 208 213 215 212 211 215 214 219 224 224 234 241 246 254 257 253
136 143 133 117 117 120 103 100 154 217 215 67 172 189 203 241 204 186 204 214 214 204 203 204 202 201 202 204 204 203 207 211 213 217 221 224 225 227 228 227 224 219 215 216 217 216 213 208 206 206 207 209 208 206 207 209 210 211 212 213 211 207 203 198 197 199 199 201 207 208 202 198 201 202 198 194 191 194 201 203 205 212 216 219 219 220 222 220 223 228 231 243 256 263 261 256 249
209 192 172 162 149 148 161 171 185 226 224 37 147 180 198 245 237 159 215 225 224 211 210 208 201 197 197 200 204 204 206 208 209 213 216 218 221 223 224 224 223 219 215 214 216 217 214 210 209 209 211 212 211 208 207 209 212 213 212 212 212 211 209 203 198 202 204 204 209 216 214 208 208 210 207 200 196 196 199 201 204 211 215 217 221 226 228 228 228 233 246 258 265 266 257 250 248
193 193 188 185 170 161 171 173 193 240 230 87 126 165 222 252 177 74 255 251 247 231 221 215 206 200 195 196 203 207 208 207 207 210 212 215 219 222 223 224 222 218 215 215 217 217 214 211 210 210 212 213 214 211 208 209 212 214 213 212 212 212 211 206 202 205 207 206 210 217 221 219 215 217 216 209 205 206 204 201 203 210 217 218 215 220 226 227 230 236 254 267 265 260 252 246 247
187 191 197 195 182 172 168 188 204 212 156 120 137 170 240 236 121 5 314 287 261 238 224 214 207 203 194 190 198 203 206 207 208 209 212 215 219 221 222 223 222 218 215 216 218 218 216 213 211 211 211 211 211 210 209 209 210 213 215 214 213 213 212 209 206 208 210 209 211 216 221 223 220 217 216 212 211 213 211 208 206 209 218 222 218 219 224 225 231 241 253 261 259 257 255 248 243
175 173 202 207 187 173 140 191 206 134 122 138 175 215 281 237 155 353 333 318 262 218 209 201 200 198 188 181 187 195 202 207 209 209 211 215 218 220 221 223 222 219 217 217 218 219 217 214 212 212 211 210 210 210 209 209 210 213 215 216 216 215 215 214 213 212 211 210 210 213 220 223 216 210 213 214 214 215 215 214 213 214 219 224 222 221 227 229 234 244 248 250 251 250 248 245 240
137 176 198 180 170 172 141 146 96 123 205 168 191 231 230 173 213 34 20 20 59 168 189 187 189 189 183 181 183 188 198 206 210 211 211 214 216 218 220 223 222 220 219 219 220 220 219 216 214 213 214 213 212 212 212 213 213 214 215 217 218 219 219 219 218 215 213 211 210 211 217 218 213 211 215 217 216 217 216 215 218 222 222 223 222 221 228 234 235 241 242 242 244 240 232 235 234
145 193 172 115 36 277 131 194 151 193 224 172 194 236 233 188 215 67 46 38 53 119 174 177 181 183 183 185 184 188 198 206 210 212 212 213 215 217 220 223 224 224 223 223 223 223 223 221 218 215 215 215 214 215 216 217 217 217 218 218 219 221 222 222 221 219 216 214 213 213 215 217 217 218 219 216 215 216 217 218 221 225 225 224 222 221 229 235 236 239 240 240 241 237 230 231 231
273 188 155 144 203 194 167 210 188 190 215 186 196 242 251 221 215 61 50 42 56 115 161 171 177 182 186 186 184 187 195 200 202 205 208 210 212 217 220 223 224 226 226 226 226 226 227 226 223 221 220 220 219 219 220 221 221 221 222 221 222 222 223 224 222 221 220 219 216 215 217 219 220 221 222 218 214 215 219 221 222 225 226 224 221 222 228 232 233 236 239 241 241 239 237 235 233
4 151 178 207 252 189 178 192 202 191 198 201 193 215 235 218 170 63 55 37 65 155 159 166 175 183 187 187 186 181 180 189 194 196 199 204 208 213 218 222 225 226 228 228 228 229 230 230 228 225 224 226 226 225 225 226 226 226 226 225 225 225 225 225 223 221 223 224 221 218 219 222 222 224 226 223 217 214 218 222 224 226 226 223 220 220 227 231 234 237 238 240 241 242 243 243 242
182 191 194 202 188 186 184 161 202 219 191 195 205 213 206 143 129 173 160 122 155 154 155 163 168 174 176 178 178 165 159 178 192 195 198 202 206 210 214 219 223 227 231 231 232 232 232 234 233 228 227 228 230 230 230 230 230 229 229 227 227 227 227 226 224 224 226 227 225 223 223 224 225 224 225 226 223 217 216 221 226 229 229 225 219 220 227 232 235 237 239 241 242 243 246 249 249
199 200 199 197 184 172 190 193 169 243 217 191 223 226 155 104 168 196 168 158 153 139 150 157 153 157 158 155 161 162 166 178 190 197 202 205 208 210 211 215 219 224 229 231 233 234 235 238 237 233 230 230 233 235 234 233 234 233 231 229 228 228 229 228 226 226 227 227 228 227 227 228 228 225 224 225 225 222 222 225 228 232 232 228 224 223 228 232 235 237 238 241 242 242 245 248 250